Location: Harwich
(41.7160°N, 69.9939°W)
Time: 06:26:25
(UTC+02:00)

ISS - Visible Passes

Search period start: 15 September 2024 00:00
Search period end: 25 September 2024 00:00
Orbit: 414 x 424 km, 51.6° (Epoch: 15 September)

Date Brightness Start Highest point End Pass type
(mag) Time Alt. Az. Time Alt. Az. Time Alt. Az.
15 Sep -3.8 01:15:57 10° SW 01:19:17 84° SE 01:22:39 10° NE visible
15 Sep -1.6 02:53:44 10° WNW 02:56:26 22° NNW 02:57:13 20° N visible
16 Sep -1.9 02:05:49 10° W 02:08:45 28° NNW 02:11:42 10° NE visible
16 Sep -0.3 03:44:19 10° NW 03:44:40 11° NW 03:44:40 11° NW visible
17 Sep -2.4 01:18:00 10° W 01:21:10 39° NNW 01:24:22 10° NE visible
17 Sep -1.2 02:56:28 10° NW 02:58:41 16° N 02:59:05 16° N visible
18 Sep -1.3 02:08:36 10° WNW 02:11:01 18° NNW 02:13:27 10° NNE visible
19 Sep -1.6 01:20:45 10° WNW 01:23:26 22° NNW 01:26:08 10° NE visible
19 Sep -1.1 02:59:05 10° NW 03:00:50 15° N 03:00:50 15° N visible
20 Sep -1.2 02:11:29 10° NW 02:13:34 15° N 02:15:14 11° NNE visible
21 Sep -1.3 01:23:48 10° NW 01:26:00 16° N 01:28:11 10° NNE visible
21 Sep -1.0 03:01:19 10° NNW 03:02:37 16° NNW 03:02:37 16° NNW visible
22 Sep -1.5 02:14:03 10° NNW 02:16:17 16° N 02:17:05 15° NNE visible
23 Sep -1.3 01:26:43 10° NW 01:28:47 15° N 01:30:53 10° NE visible
23 Sep -1.0 03:03:26 10° NW 03:04:33 17° NNW 03:04:33 17° NNW visible
24 Sep -2.0 02:16:21 10° NW 02:19:05 22° NNE 02:19:06 22° NNE visible
